Simultaneous Nadir Overpasses (SNOs) Predictions

Prediction of SNOs between AQUA and NOAA-19 Satellite Orbit:

Table of predicted SNOs for the next 14.0 days since TLE Epoch: 11/6/2021
Index Date (AQUA) Time (AQUA) Lat,Lon (AQUA) SZA (AQUA ) Date (NOAA-19) Time (NOAA-19) Lat,Lon (NOAA-19) SZA (NOAA-19 ) Distance(km) Time Diff (sec)
1 11/06/2021 21:06:20 78.32,-156.71 94.93 11/06/2021 21:06:26 78.34,-156.74 94.95 2.09 6
2 11/09/2021 02:40:04 -78.30, -60.05 84.44 11/09/2021 02:39:33 -78.32, -60.07 84.42 1.49 31
3 11/09/2021 03:29:32 78.33, 107.43 95.61 11/09/2021 03:30:31 78.34, 107.31 95.61 2.76 59
4 11/11/2021 08:13:49 78.28, 36.65 96.15 11/11/2021 08:12:37 78.29, 36.56 96.19 2.25 72
5 11/11/2021 09:03:16 -78.33,-155.95 83.78 11/11/2021 09:03:38 -78.33,-155.90 83.78 1.56 22
6 11/13/2021 14:37:01 78.31, -59.31 96.81 11/13/2021 14:36:41 78.31, -59.20 96.81 2.64 20
7 11/13/2021 15:26:28 -78.36, 108.10 83.13 11/13/2021 15:27:41 -78.42, 108.71 83.12 15.43 73
8 11/15/2021 20:10:44 -78.27, 37.44 82.67 11/15/2021 20:09:50 -78.28, 37.37 82.65 1.64 54
9 11/15/2021 21:00:12 78.31,-155.10 97.39 11/15/2021 21:00:46 78.30,-155.20 97.38 2.31 34
10 11/18/2021 02:33:55 -78.28, -58.39 82.10 11/18/2021 02:33:55 -78.28, -58.53 82.09 3.10 0



Historial Predications of SNOs between AQUA and NOAA-19
